Location: Dzierzno
(50.6159°N, 19.2852°E)
Time: 22:06:39
(UTC+00:00)

Cosmos 2344 - Pass Details

Date: 18 November 2025
Orbit: 1197 x 3044 km, 63.3° (Epoch: 05 December)

Event Time Altitude Azimuth Distance (km) Brightness Sun altitude
Rises 16:09:20 0° 310° (NW) 4,130 6.8 -12.0°
Reaches altitude 10° 16:11:59 10° 316° (NW) 3,217 6.1 -12.4°
Maximum altitude 16:19:22 53° 33° (NNE) 1,691 4.0 -13.5°
Enters shadow 16:28:28 11° 109° (ESE) 3,969 5.6 -14.9°
